| time (UTC) | temp C | wind direction | speed KPH | gust KPH | rain 1hr cm | rain 24hr cm | rain mn cm | humidity % | barometer mb |
| 20260508171049 | 20 | 286 | 3.2 | 3.2 | 0.00 | 0.00 | 0.00 | 49 | 1015.8 |
| 20260508170547 | 20 | 323 | 1.6 | 1.6 | 0.00 | 0.00 | 0.00 | 41 | 1015.7 |
| 20260508170043 | 20 | 290 | 6.4 | 11.3 | 0.00 | 0.00 | 0.00 | 47 | 1015.8 |
| 20260508165541 | 20 | 286 | 6.4 | 8.0 | 0.00 | 0.00 | 0.00 | 45 | 1015.9 |
| 20260508165038 | 20 | 286 | 8.0 | 11.3 | 0.00 | 0.00 | 0.00 | 47 | 1016.1 |
| 20260508164534 | 19 | 320 | 3.2 | 3.2 | 0.00 | 0.00 | 0.00 | 43 | 1016.1 |
| 20260508164031 | 20 | 286 | 4.8 | 8.0 | 0.00 | 0.00 | 0.00 | 48 | 1016.2 |
| 20260508163528 | 19 | 51 | 1.6 | 3.2 | 0.00 | 0.00 | 0.00 | 47 | 1016.3 |
| 20260508163025 | 20 | 286 | 1.6 | 1.6 | 0.00 | 0.00 | 0.00 | 41 | 1016.5 |
| 20260508162522 | 19 | 340 | 3.2 | 4.8 | 0.00 | 0.00 | 0.00 | 41 | 1016.5 |
| 20260508162019 | 20 | 327 | 1.6 | 4.8 | 0.00 | 0.00 | 0.00 | 48 | 1016.4 |
| 20260508161516 | 19 | 314 | 4.8 | 4.8 | 0.00 | 0.00 | 0.00 | 48 | 1016.7 |
| 20260508161013 | 18 | 286 | 6.4 | 11.3 | 0.00 | 0.00 | 0.00 | 46 | 1016.7 |
| 20260508160512 | 19 | 286 | 11.3 | 17.7 | 0.00 | 0.00 | 0.00 | 44 | 1016.7 |
| 20260508160008 | 18 | 286 | 4.8 | 8.0 | 0.00 | 0.00 | 0.00 | 42 | 1016.8 |
| 20260508155505 | 19 | 288 | 4.8 | 4.8 | 0.00 | 0.00 | 0.00 | 44 | 1017.0 |
| 20260508155002 | 18 | 286 | 4.8 | 8.0 | 0.00 | 0.00 | 0.00 | 44 | 1017.1 |
| 20260508154500 | 18 | 292 | 3.2 | 4.8 | 0.00 | 0.00 | 0.00 | 45 | 1017.4 |
| 20260508153956 | 18 | 286 | 1.6 | 3.2 | 0.00 | 0.00 | 0.00 | 48 | 1017.3 |
| 20260508153453 | 18 | 286 | 9.7 | 11.3 | 0.00 | 0.00 | 0.00 | 44 | 1017.4 |
| 20260508152949 | 18 | 309 | 3.2 | 8.0 | 0.00 | 0.00 | 0.00 | 46 | 1017.1 |
| 20260508152446 | 18 | 28 | 1.6 | 1.6 | 0.00 | 0.00 | 0.00 | 46 | 1017.0 |
| 20260508151942 | 18 | 286 | 8.0 | 12.9 | 0.00 | 0.00 | 0.00 | 45 | 1017.4 |
| 20260508151439 | 18 | 288 | 0.0 | 1.6 | 0.00 | 0.00 | 0.00 | 44 | 1017.4 |
| 20260508150935 | 18 | 319 | 0.0 | 1.6 | 0.00 | 0.00 | 0.00 | 41 | 1017.3 |
| 20260508150432 | 17 | 301 | 4.8 | 4.8 | 0.00 | 0.00 | 0.00 | 47 | 1017.3 |
| 20260508145928 | 17 | 286 | 6.4 | 8.0 | 0.00 | 0.00 | 0.00 | 45 | 1017.4 |
| 20260508145425 | 17 | 10 | 8.0 | 11.3 | 0.00 | 0.00 | 0.00 | 45 | 1017.4 |
| 20260508144921 | 17 | 286 | 3.2 | 4.8 | 0.00 | 0.00 | 0.00 | 48 | 1017.7 |
| 20260508144419 | 17 | 305 | 4.8 | 4.8 | 0.00 | 0.00 | 0.00 | 47 | 1017.3 |
| 20260508143916 | 17 | 346 | 9.7 | 12.9 | 0.00 | 0.00 | 0.00 | 44 | 1017.4 |
| 20260508143414 | 16 | 320 | 1.6 | 1.6 | 0.00 | 0.00 | 0.00 | 53 | 1017.0 |
| 20260508142910 | 16 | 358 | 6.4 | 9.7 | 0.00 | 0.00 | 0.00 | 50 | 1017.4 |
| 20260508142408 | 16 | 17 | 0.0 | 1.6 | 0.00 | 0.00 | 0.00 | 53 | 1017.4 |
| 20260508141904 | 16 | 301 | 3.2 | 3.2 | 0.00 | 0.00 | 0.00 | 52 | 1017.1 |
| 20260508141400 | 15 | 323 | 1.6 | 3.2 | 0.00 | 0.00 | 0.00 | 52 | 1017.5 |
| 20260508140858 | 15 | 318 | 4.8 | 9.7 | 0.00 | 0.00 | 0.00 | 53 | 1017.4 |
| 20260508140355 | 16 | 288 | 4.8 | 8.0 | 0.00 | 0.00 | 0.00 | 53 | 1017.5 |
| 20260508135850 | 15 | 50 | 4.8 | 4.8 | 0.00 | 0.00 | 0.00 | 52 | 1017.4 |
| 20260508135347 | 15 | 40 | 3.2 | 3.2 | 0.00 | 0.00 | 0.00 | 55 | 1017.5 |
| 20260508134843 | 15 | 319 | 0.0 | 0.0 | 0.00 | 0.00 | 0.00 | 54 | 1017.5 |
| 20260508134340 | 15 | 286 | 4.8 | 8.0 | 0.00 | 0.00 | 0.00 | 53 | 1017.3 |
| 20260508133837 | 14 | 286 | 4.8 | 4.8 | 0.00 | 0.00 | 0.00 | 56 | 1017.5 |
| 20260508133335 | 15 | 288 | 6.4 | 9.7 | 0.00 | 0.00 | 0.00 | 54 | 1017.4 |
| 20260508132831 | 14 | 329 | 4.8 | 4.8 | 0.00 | 0.00 | 0.00 | 54 | 1017.5 |
| 20260508132329 | 14 | 26 | 3.2 | 3.2 | 0.00 | 0.00 | 0.00 | 58 | 1017.4 |
| 20260508131826 | 13 | 333 | 3.2 | 4.8 | 0.00 | 0.00 | 0.00 | 61 | 1017.6 |
| 20260508131321 | 13 | 30 | 0.0 | 0.0 | 0.00 | 0.00 | 0.00 | 63 | 1017.6 |
| 20260508130818 | 13 | 322 | 3.2 | 3.2 | 0.00 | 0.00 | 0.00 | 60 | 1017.5 |
| 20260508130315 | 13 | 48 | 1.6 | 1.6 | 0.00 | 0.00 | 0.00 | 64 | 1017.7 |
| 20260508125811 | 13 | 32 | 0.0 | 0.0 | 0.00 | 0.00 | 0.00 | 69 | 1017.7 |
| 20260508125308 | 12 | 50 | 1.6 | 1.6 | 0.00 | 0.00 | 0.00 | 68 | 1017.7 |
| 20260508124806 | 11 | 37 | 0.0 | 0.0 | 0.00 | 0.00 | 0.00 | 72 | 1017.8 |
| 20260508124303 | 11 | 44 | 0.0 | 1.6 | 0.00 | 0.00 | 0.00 | 72 | 1017.6 |
| 20260508123801 | 11 | 48 | 0.0 | 1.6 | 0.00 | 0.00 | 0.00 | 71 | 1017.7 |
| 20260508123259 | 11 | 37 | 0.0 | 1.6 | 0.00 | 0.00 | 0.00 | 72 | 1017.7 |
| 20260508122754 | 10 | 37 | 0.0 | 0.0 | 0.00 | 0.00 | 0.00 | 76 | 1017.7 |
| 20260508122252 | 10 | 39 | 0.0 | 0.0 | 0.00 | 0.00 | 0.00 | 76 | 1017.7 |
| 20260508121749 | 8 | 20 | 0.0 | 0.0 | 0.00 | 0.00 | 0.00 | 80 | 1017.8 |
| 20260508121248 | 8 | 49 | 0.0 | 0.0 | 0.00 | 0.00 | 0.00 | 80 | 1017.6 |
| 20260508120744 | 8 | 49 | 0.0 | 0.0 | 0.00 | 0.00 | 0.00 | 81 | 1017.7 |
| 20260508120243 | 8 | 37 | 0.0 | 0.0 | 0.00 | 0.00 | 0.00 | 82 | 1017.6 |
| 20260508115740 | 7 | 44 | 0.0 | 0.0 | 0.00 | 0.00 | 0.00 | 82 | 1017.6 |
| 20260508115237 | 7 | 36 | 0.0 | 0.0 | 0.00 | 0.00 | 0.00 | 85 | 1017.4 |
| 20260508114733 | 7 | 41 | 0.0 | 0.0 | 0.00 | 0.00 | 0.00 | 89 | 1017.4 |
| 20260508114230 | 6 | 36 | 0.0 | 0.0 | 0.00 | 0.00 | 0.00 | 90 | 1017.4 |
| 20260508113727 | 5 | 47 | 0.0 | 0.0 | 0.00 | 0.00 | 0.00 | 91 | 1017.4 |
| 20260508113226 | 5 | 49 | 0.0 | 1.6 | 0.00 | 0.00 | 0.00 | 91 | 1017.3 |
| 20260508112721 | 4 | 27 | 0.0 | 0.0 | 0.00 | 0.00 | 0.00 | 92 | 1017.4 |
| 20260508112218 | 3 | 27 | 0.0 | 0.0 | 0.00 | 0.00 | 0.00 | 92 | 1017.4 |
| 20260508111715 | 3 | 27 | 0.0 | 0.0 | 0.00 | 0.00 | 0.00 | 92 | 1017.3 |
| 20260508111212 | 2 | 22 | 0.0 | 0.0 | 0.00 | 0.00 | 0.00 | 92 | 1017.5 |
| 20260508110709 | 2 | 22 | 0.0 | 0.0 | 0.00 | 0.00 | 0.00 | 92 | 1017.4 |
| 20260508110206 | 2 | 18 | 0.0 | 0.0 | 0.00 | 0.00 | 0.00 | 92 | 1017.3 |
| 20260508105706 | 2 | 17 | 0.0 | 0.0 | 0.00 | 0.00 | 0.00 | 92 | 1017.3 |
| 20260508105203 | 2 | 17 | 0.0 | 0.0 | 0.00 | 0.00 | 0.00 | 92 | 1017.1 |
| 20260508104701 | 2 | 17 | 0.0 | 0.0 | 0.00 | 0.00 | 0.00 | 92 | 1017.4 |
| 20260508104157 | 1 | 12 | 0.0 | 0.0 | 0.00 | 0.00 | 0.00 | 92 | 1017.0 |
| 20260508103655 | 1 | 10 | 0.0 | 0.0 | 0.00 | 0.00 | 0.00 | 92 | 1017.1 |
| 20260508103152 | 1 | 10 | 0.0 | 0.0 | 0.00 | 0.00 | 0.00 | 92 | 1017.0 |
| 20260508102649 | 1 | 20 | 0.0 | 0.0 | 0.00 | 0.00 | 0.00 | 92 | 1016.8 |
| 20260508102147 | 1 | 18 | 0.0 | 0.0 | 0.00 | 0.00 | 0.00 | 92 | 1016.8 |
| 20260508101644 | 1 | 18 | 0.0 | 0.0 | 0.00 | 0.00 | 0.00 | 92 | 1016.7 |
| 20260508101141 | 1 | 18 | 0.0 | 0.0 | 0.00 | 0.00 | 0.00 | 92 | 1016.6 |
| 20260508100638 | 1 | 18 | 0.0 | 0.0 | 0.00 | 0.00 | 0.00 | 92 | 1016.7 |
| 20260508100137 | 1 | 15 | 0.0 | 0.0 | 0.00 | 0.00 | 0.00 | 92 | 1016.8 |
| 20260508095633 | 1 | 15 | 0.0 | 0.0 | 0.00 | 0.00 | 0.00 | 92 | 1016.6 |
| 20260508095130 | 2 | 14 | 0.0 | 0.0 | 0.00 | 0.00 | 0.00 | 92 | 1016.5 |
| 20260508094627 | 2 | 11 | 0.0 | 0.0 | 0.00 | 0.00 | 0.00 | 92 | 1016.7 |
| 20260508094124 | 2 | 10 | 0.0 | 0.0 | 0.00 | 0.00 | 0.00 | 92 | 1016.5 |
| 20260508093621 | 2 | 5 | 0.0 | 0.0 | 0.00 | 0.00 | 0.00 | 92 | 1016.6 |
| 20260508093119 | 1 | 13 | 0.0 | 0.0 | 0.00 | 0.00 | 0.00 | 92 | 1016.6 |
| 20260508092616 | 1 | 13 | 0.0 | 0.0 | 0.00 | 0.00 | 0.00 | 92 | 1016.8 |
| 20260508092114 | 2 | 12 | 0.0 | 0.0 | 0.00 | 0.00 | 0.00 | 92 | 1016.6 |
| 20260508091611 | 2 | 12 | 0.0 | 0.0 | 0.00 | 0.00 | 0.00 | 92 | 1016.5 |
| 20260508091108 | 2 | 11 | 0.0 | 0.0 | 0.00 | 0.00 | 0.00 | 92 | 1016.6 |
| 20260508090606 | 1 | 11 | 0.0 | 0.0 | 0.00 | 0.00 | 0.00 | 92 | 1016.6 |
| 20260508090103 | 2 | 11 | 0.0 | 0.0 | 0.00 | 0.00 | 0.00 | 92 | 1016.6 |
| 20260508085559 | 2 | 11 | 0.0 | 0.0 | 0.00 | 0.00 | 0.00 | 92 | 1016.7 |
| 20260508085056 | 2 | 2 | 0.0 | 0.0 | 0.00 | 0.00 | 0.00 | 92 | 1016.5 |
| 20260508084553 | 2 | 11 | 0.0 | 0.0 | 0.00 | 0.00 | 0.00 | 92 | 1016.5 |
| 20260508084050 | 1 | 11 | 0.0 | 0.0 | 0.00 | 0.00 | 0.00 | 92 | 1016.4 |
| 20260508083547 | 1 | 11 | 0.0 | 0.0 | 0.00 | 0.00 | 0.00 | 92 | 1016.5 |
| 20260508083044 | 2 | 11 | 0.0 | 0.0 | 0.00 | 0.00 | 0.00 | 92 | 1016.4 |
| 20260508082540 | 2 | 8 | 0.0 | 0.0 | 0.00 | 0.00 | 0.00 | 92 | 1016.3 |
| 20260508082037 | 2 | 10 | 0.0 | 0.0 | 0.00 | 0.00 | 0.00 | 92 | 1016.4 |
| 20260508081535 | 2 | 12 | 0.0 | 0.0 | 0.00 | 0.00 | 0.00 | 92 | 1016.4 |
| 20260508081030 | 2 | 11 | 0.0 | 0.0 | 0.00 | 0.00 | 0.00 | 92 | 1016.3 |
| 20260508080529 | 2 | 11 | 0.0 | 0.0 | 0.00 | 0.00 | 0.00 | 92 | 1016.4 |
| 20260508080026 | 2 | 11 | 0.0 | 0.0 | 0.00 | 0.00 | 0.00 | 92 | 1016.3 |
| 20260508075522 | 2 | 2 | 0.0 | 0.0 | 0.00 | 0.00 | 0.00 | 92 | 1016.5 |
| 20260508075020 | 2 | 11 | 0.0 | 0.0 | 0.00 | 0.00 | 0.00 | 92 | 1016.3 |
| 20260508074518 | 2 | 8 | 0.0 | 0.0 | 0.00 | 0.00 | 0.00 | 92 | 1016.2 |
| 20260508074014 | 2 | 18 | 0.0 | 0.0 | 0.00 | 0.00 | 0.00 | 92 | 1016.5 |
| 20260508073511 | 2 | 18 | 0.0 | 0.0 | 0.00 | 0.00 | 0.00 | 92 | 1016.4 |
| 20260508073009 | 2 | 18 | 0.0 | 0.0 | 0.00 | 0.00 | 0.00 | 92 | 1016.3 |
| 20260508072504 | 2 | 18 | 0.0 | 0.0 | 0.00 | 0.00 | 0.00 | 92 | 1016.1 |
| 20260508072002 | 2 | 18 | 0.0 | 0.0 | 0.00 | 0.00 | 0.00 | 92 | 1016.5 |
| 20260508071500 | 2 | 18 | 0.0 | 0.0 | 0.00 | 0.00 | 0.00 | 92 | 1016.5 |
| 20260508070957 | 2 | 18 | 0.0 | 0.0 | 0.00 | 0.00 | 0.00 | 91 | 1016.5 |
| 20260508070455 | 3 | 20 | 0.0 | 0.0 | 0.00 | 0.00 | 0.00 | 91 | 1016.4 |
| 20260508065953 | 3 | 19 | 0.0 | 0.0 | 0.00 | 0.00 | 0.00 | 91 | 1016.3 |
| 20260508065450 | 3 | 35 | 0.0 | 0.0 | 0.00 | 0.00 | 0.00 | 91 | 1016.3 |
| 20260508064948 | 3 | 34 | 0.0 | 0.0 | 0.00 | 0.00 | 0.00 | 91 | 1016.2 |
| 20260508064445 | 2 | 34 | 0.0 | 0.0 | 0.00 | 0.00 | 0.00 | 91 | 1016.3 |
| 20260508063943 | 2 | 34 | 0.0 | 0.0 | 0.00 | 0.00 | 0.00 | 91 | 1016.3 |
| 20260508063440 | 3 | 34 | 0.0 | 0.0 | 0.00 | 0.00 | 0.00 | 91 | 1016.4 |
| 20260508062938 | 3 | 34 | 0.0 | 0.0 | 0.00 | 0.00 | 0.00 | 91 | 1016.4 |
| 20260508062435 | 2 | 35 | 0.0 | 0.0 | 0.00 | 0.00 | 0.00 | 90 | 1016.5 |
| 20260508061932 | 3 | 35 | 0.0 | 0.0 | 0.00 | 0.00 | 0.00 | 90 | 1016.7 |
| 20260508061430 | 3 | 35 | 0.0 | 0.0 | 0.00 | 0.00 | 0.00 | 91 | 1016.4 |
| 20260508060925 | 3 | 18 | 0.0 | 0.0 | 0.00 | 0.00 | 0.00 | 90 | 1016.6 |
| 20260508060424 | 3 | 17 | 0.0 | 0.0 | 0.00 | 0.00 | 0.00 | 90 | 1016.6 |
| 20260508055919 | 3 | 12 | 0.0 | 0.0 | 0.00 | 0.00 | 0.00 | 90 | 1016.7 |
| 20260508055416 | 3 | 14 | 0.0 | 0.0 | 0.00 | 0.00 | 0.00 | 90 | 1016.4 |
| 20260508054912 | 3 | 18 | 0.0 | 0.0 | 0.00 | 0.00 | 0.00 | 90 | 1016.5 |
| 20260508054410 | 3 | 21 | 0.0 | 0.0 | 0.00 | 0.00 | 0.00 | 89 | 1016.4 |
| 20260508053907 | 3 | 21 | 0.0 | 0.0 | 0.00 | 0.00 | 0.00 | 90 | 1016.5 |
| 20260508053404 | 3 | 21 | 0.0 | 0.0 | 0.00 | 0.00 | 0.00 | 89 | 1016.5 |
| 20260508052901 | 4 | 22 | 0.0 | 0.0 | 0.00 | 0.00 | 0.00 | 89 | 1016.6 |
| 20260508052359 | 4 | 11 | 0.0 | 0.0 | 0.00 | 0.00 | 0.00 | 89 | 1016.4 |
| 20260508051855 | 4 | 11 | 0.0 | 0.0 | 0.00 | 0.00 | 0.00 | 89 | 1016.5 |
| 20260508051350 | 4 | 14 | 0.0 | 0.0 | 0.00 | 0.00 | 0.00 | 89 | 1016.4 |
| 20260508050847 | 4 | 26 | 0.0 | 0.0 | 0.00 | 0.00 | 0.00 | 89 | 1016.3 |
| 20260508050344 | 4 | 26 | 0.0 | 0.0 | 0.00 | 0.00 | 0.00 | 89 | 1016.3 |
| 20260508045840 | 4 | 26 | 0.0 | 0.0 | 0.00 | 0.00 | 0.00 | 88 | 1016.3 |
| 20260508045338 | 4 | 26 | 0.0 | 0.0 | 0.00 | 0.00 | 0.00 | 88 | 1016.4 |
| 20260508044835 | 4 | 26 | 0.0 | 0.0 | 0.00 | 0.00 | 0.00 | 88 | 1016.4 |
| 20260508044331 | 4 | 26 | 0.0 | 0.0 | 0.00 | 0.00 | 0.00 | 87 | 1016.3 |
| 20260508043827 | 5 | 26 | 0.0 | 0.0 | 0.00 | 0.00 | 0.00 | 87 | 1016.5 |
| 20260508043325 | 5 | 26 | 0.0 | 0.0 | 0.00 | 0.00 | 0.00 | 86 | 1016.3 |
| 20260508042821 | 5 | 26 | 0.0 | 0.0 | 0.00 | 0.00 | 0.00 | 86 | 1016.5 |
| 20260508042319 | 5 | 31 | 0.0 | 0.0 | 0.00 | 0.00 | 0.00 | 86 | 1016.5 |
| 20260508041816 | 5 | 30 | 0.0 | 0.0 | 0.00 | 0.00 | 0.00 | 86 | 1016.4 |
| 20260508041312 | 5 | 31 | 0.0 | 0.0 | 0.00 | 0.00 | 0.00 | 85 | 1016.6 |
| 20260508040809 | 5 | 1 | 0.0 | 0.0 | 0.00 | 0.00 | 0.00 | 84 | 1016.4 |
| 20260508040307 | 5 | 356 | 1.6 | 1.6 | 0.00 | 0.00 | 0.00 | 85 | 1016.4 |
| 20260508035803 | 5 | 11 | 0.0 | 0.0 | 0.00 | 0.00 | 0.00 | 85 | 1016.5 |
| 20260508035301 | 5 | 11 | 0.0 | 0.0 | 0.00 | 0.00 | 0.00 | 85 | 1016.5 |
| 20260508034757 | 5 | 11 | 0.0 | 0.0 | 0.00 | 0.00 | 0.00 | 85 | 1016.4 |
| 20260508034254 | 5 | 19 | 0.0 | 0.0 | 0.00 | 0.00 | 0.00 | 83 | 1016.5 |
| 20260508033751 | 6 | 19 | 0.0 | 0.0 | 0.00 | 0.00 | 0.00 | 82 | 1016.4 |
| 20260508033249 | 6 | 19 | 0.0 | 0.0 | 0.00 | 0.00 | 0.00 | 82 | 1016.4 |
| 20260508032747 | 6 | 3 | 0.0 | 0.0 | 0.00 | 0.00 | 0.00 | 82 | 1016.6 |
| 20260508032244 | 6 | 11 | 0.0 | 0.0 | 0.00 | 0.00 | 0.00 | 81 | 1016.4 |
| 20260508031741 | 6 | 2 | 0.0 | 0.0 | 0.00 | 0.00 | 0.00 | 81 | 1016.5 |
| 20260508031237 | 6 | 357 | 0.0 | 0.0 | 0.00 | 0.00 | 0.00 | 81 | 1016.6 |
| 20260508030733 | 6 | 349 | 0.0 | 0.0 | 0.00 | 0.00 | 0.00 | 80 | 1016.6 |
| 20260508030231 | 6 | 341 | 0.0 | 0.0 | 0.00 | 0.00 | 0.00 | 79 | 1016.3 |
| 20260508025727 | 6 | 351 | 0.0 | 0.0 | 0.00 | 0.00 | 0.00 | 78 | 1016.4 |
| 20260508025225 | 7 | 351 | 0.0 | 0.0 | 0.00 | 0.00 | 0.00 | 78 | 1016.3 |
| 20260508024720 | 7 | 357 | 0.0 | 0.0 | 0.00 | 0.00 | 0.00 | 77 | 1016.4 |
| 20260508024218 | 7 | 359 | 0.0 | 0.0 | 0.00 | 0.00 | 0.00 | 77 | 1016.4 |
| 20260508023714 | 7 | 359 | 0.0 | 0.0 | 0.00 | 0.00 | 0.00 | 76 | 1016.5 |
| 20260508023212 | 7 | 358 | 0.0 | 0.0 | 0.00 | 0.00 | 0.00 | 76 | 1016.4 |
| 20260508022707 | 7 | 358 | 0.0 | 0.0 | 0.00 | 0.00 | 0.00 | 74 | 1016.3 |
| 20260508022204 | 7 | 357 | 0.0 | 0.0 | 0.00 | 0.00 | 0.00 | 75 | 1016.2 |
| 20260508021701 | 7 | 2 | 0.0 | 0.0 | 0.00 | 0.00 | 0.00 | 74 | 1016.0 |
| 20260508021156 | 8 | 357 | 0.0 | 0.0 | 0.00 | 0.00 | 0.00 | 72 | 1016.2 |
| 20260508020654 | 8 | 5 | 0.0 | 0.0 | 0.00 | 0.00 | 0.00 | 72 | 1016.1 |
| 20260508020151 | 8 | 12 | 0.0 | 0.0 | 0.00 | 0.00 | 0.00 | 71 | 1016.0 |
| 20260508015648 | 8 | 10 | 0.0 | 0.0 | 0.00 | 0.00 | 0.00 | 69 | 1015.7 |
| 20260508015146 | 8 | 9 | 0.0 | 0.0 | 0.00 | 0.00 | 0.00 | 68 | 1015.8 |
| 20260508014642 | 8 | 10 | 0.0 | 0.0 | 0.00 | 0.00 | 0.00 | 67 | 1015.8 |
| 20260508014138 | 9 | 10 | 1.6 | 1.6 | 0.00 | 0.00 | 0.00 | 66 | 1015.7 |
| 20260508013634 | 9 | 10 | 0.0 | 0.0 | 0.00 | 0.00 | 0.00 | 64 | 1015.9 |
| 20260508013131 | 10 | 342 | 0.0 | 1.6 | 0.00 | 0.00 | 0.00 | 63 | 1015.6 |
| 20260508012629 | 10 | 337 | 1.6 | 1.6 | 0.00 | 0.00 | 0.00 | 61 | 1015.3 |
| 20260508012126 | 10 | 356 | 0.0 | 0.0 | 0.00 | 0.00 | 0.00 | 60 | 1015.4 |
| 20260508011624 | 10 | 358 | 0.0 | 0.0 | 0.00 | 0.00 | 0.00 | 58 | 1015.1 |
| 20260508011121 | 11 | 345 | 0.0 | 1.6 | 0.00 | 0.00 | 0.00 | 56 | 1015.1 |
| 20260508010618 | 11 | 351 | 1.6 | 1.6 | 0.00 | 0.00 | 0.00 | 55 | 1015.1 |
| 20260508010116 | 11 | 19 | 0.0 | 0.0 | 0.00 | 0.00 | 0.00 | 55 | 1015.2 |
| 20260508005612 | 11 | 20 | 0.0 | 0.0 | 0.00 | 0.00 | 0.00 | 54 | 1015.2 |
| 20260508005109 | 12 | 21 | 0.0 | 0.0 | 0.00 | 0.00 | 0.00 | 51 | 1014.9 |
| 20260508004605 | 12 | 21 | 0.0 | 0.0 | 0.00 | 0.00 | 0.00 | 50 | 1014.9 |
| 20260508004102 | 12 | 347 | 0.0 | 0.0 | 0.00 | 0.00 | 0.00 | 47 | 1014.9 |
| 20260508003558 | 13 | 325 | 0.0 | 0.0 | 0.00 | 0.00 | 0.00 | 46 | 1014.8 |
| 20260508003056 | 13 | 330 | 1.6 | 1.6 | 0.00 | 0.00 | 0.00 | 44 | 1015.1 |
| 20260508002552 | 13 | 345 | 0.0 | 0.0 | 0.00 | 0.00 | 0.00 | 42 | 1014.9 |
| 20260508002049 | 13 | 7 | 0.0 | 0.0 | 0.00 | 0.00 | 0.00 | 41 | 1015.0 |
| 20260508001545 | 13 | 7 | 0.0 | 0.0 | 0.00 | 0.00 | 0.00 | 42 | 1014.5 |
| 20260508001041 | 14 | 36 | 1.6 | 3.2 | 0.00 | 0.00 | 0.00 | 41 | 1014.6 |
| 20260508000537 | 14 | 315 | 0.0 | 1.6 | 0.00 | 0.00 | 0.00 | 40 | 1014.6 |
| 20260508000035 | 14 | 38 | 1.6 | 1.6 | 0.00 | 0.00 | 0.00 | 39 | 1014.6 |
| 20260507235531 | 15 | 28 | 0.0 | 1.6 | 0.00 | 0.00 | 0.00 | 37 | 1014.7 |
| 20260507235029 | 15 | 23 | 1.6 | 3.2 | 0.00 | 0.00 | 0.00 | 37 | 1014.4 |
| 20260507234525 | 15 | 320 | 1.6 | 3.2 | 0.00 | 0.00 | 0.00 | 35 | 1014.5 |
| 20260507234021 | 15 | 9 | 8.0 | 11.3 | 0.00 | 0.00 | 0.00 | 35 | 1014.6 |
| 20260507233518 | 15 | 33 | 9.7 | 16.1 | 0.00 | 0.00 | 0.00 | 34 | 1014.5 |
| 20260507233017 | 15 | 14 | 4.8 | 4.8 | 0.00 | 0.00 | 0.00 | 33 | 1014.3 |
| 20260507232513 | 15 | 25 | 0.0 | 1.6 | 0.00 | 0.00 | 0.00 | 34 | 1014.3 |
| 20260507232010 | 15 | 292 | 6.4 | 9.7 | 0.00 | 0.00 | 0.00 | 33 | 1014.3 |
| 20260507231506 | 16 | 355 | 4.8 | 4.8 | 0.00 | 0.00 | 0.00 | 33 | 1014.2 |
| 20260507231004 | 16 | 357 | 3.2 | 4.8 | 0.00 | 0.00 | 0.00 | 30 | 1014.0 |
| 20260507230501 | 17 | 3 | 6.4 | 11.3 | 0.00 | 0.00 | 0.00 | 31 | 1014.2 |
| 20260507225955 | 17 | 349 | 3.2 | 4.8 | 0.00 | 0.00 | 0.00 | 33 | 1014.0 |
| 20260507225452 | 17 | 8 | 1.6 | 3.2 | 0.00 | 0.00 | 0.00 | 34 | 1014.2 |
| 20260507224948 | 17 | 23 | 1.6 | 1.6 | 0.00 | 0.00 | 0.00 | 35 | 1014.1 |
| 20260507224444 | 17 | 319 | 3.2 | 4.8 | 0.00 | 0.00 | 0.00 | 33 | 1014.1 |
| 20260507223941 | 17 | 27 | 1.6 | 3.2 | 0.00 | 0.00 | 0.00 | 33 | 1014.2 |
| 20260507223437 | 17 | 297 | 0.0 | 1.6 | 0.00 | 0.00 | 0.00 | 35 | 1014.2 |
| 20260507222934 | 17 | 318 | 4.8 | 4.8 | 0.00 | 0.00 | 0.00 | 32 | 1014.2 |
| 20260507222431 | 17 | 287 | 4.8 | 11.3 | 0.00 | 0.00 | 0.00 | 34 | 1014.1 |
| 20260507221928 | 17 | 336 | 3.2 | 4.8 | 0.00 | 0.00 | 0.00 | 34 | 1014.2 |
| 20260507221425 | 17 | 12 | 3.2 | 4.8 | 0.00 | 0.00 | 0.00 | 33 | 1014.0 |
| 20260507220921 | 17 | 345 | 1.6 | 3.2 | 0.00 | 0.00 | 0.00 | 33 | 1013.9 |
| 20260507220419 | 18 | 299 | 4.8 | 8.0 | 0.00 | 0.00 | 0.00 | 33 | 1014.0 |
| 20260507215915 | 17 | 315 | 4.8 | 8.0 | 0.00 | 0.00 | 0.00 | 35 | 1013.8 |
| 20260507215412 | 17 | 20 | 1.6 | 1.6 | 0.00 | 0.00 | 0.00 | 33 | 1013.7 |
| 20260507214909 | 18 | 286 | 6.4 | 9.7 | 0.00 | 0.00 | 0.00 | 35 | 1013.8 |
| 20260507214407 | 17 | 330 | 8.0 | 9.7 | 0.00 | 0.00 | 0.00 | 34 | 1013.6 |
| 20260507213902 | 18 | 8 | 11.3 | 12.9 | 0.00 | 0.00 | 0.00 | 33 | 1013.4 |
| 20260507213358 | 17 | 286 | 4.8 | 4.8 | 0.00 | 0.00 | 0.00 | 37 | 1013.3 |
| 20260507212856 | 18 | 354 | 1.6 | 3.2 | 0.00 | 0.00 | 0.00 | 35 | 1013.6 |
| 20260507212351 | 18 | 289 | 8.0 | 12.9 | 0.00 | 0.00 | 0.00 | 38 | 1013.4 |
| 20260507211848 | 18 | 358 | 3.2 | 4.8 | 0.00 | 0.00 | 0.00 | 37 | 1013.5 |
| 20260507211345 | 18 | 316 | 0.0 | 3.2 | 0.00 | 0.00 | 0.00 | 36 | 1013.5 |
| 20260507210842 | 18 | 32 | 4.8 | 4.8 | 0.00 | 0.00 | 0.00 | 35 | 1013.4 |
| 20260507210339 | 18 | 286 | 3.2 | 4.8 | 0.00 | 0.00 | 0.00 | 36 | 1013.6 |
| 20260507205835 | 18 | 286 | 11.3 | 16.1 | 0.00 | 0.00 | 0.00 | 36 | 1013.5 |
| 20260507205332 | 18 | 286 | 6.4 | 9.7 | 0.00 | 0.00 | 0.00 | 38 | 1013.4 |
| 20260507204828 | 17 | 286 | 3.2 | 3.2 | 0.00 | 0.00 | 0.00 | 38 | 1013.2 |
| 20260507204326 | 18 | 286 | 4.8 | 8.0 | 0.00 | 0.00 | 0.00 | 39 | 1013.3 |
| 20260507203823 | 18 | 353 | 8.0 | 11.3 | 0.00 | 0.00 | 0.00 | 37 | 1013.1 |
| 20260507203321 | 18 | 3 | 4.8 | 4.8 | 0.00 | 0.00 | 0.00 | 38 | 1013.6 |
| 20260507202817 | 18 | 2 | 3.2 | 8.0 | 0.00 | 0.00 | 0.00 | 41 | 1013.3 |
| 20260507202314 | 18 | 296 | 3.2 | 4.8 | 0.00 | 0.00 | 0.00 | 39 | 1013.5 |
| 20260507201809 | 18 | 286 | 4.8 | 8.0 | 0.00 | 0.00 | 0.00 | 39 | 1013.3 |
| 20260507201305 | 18 | 11 | 8.0 | 12.9 | 0.00 | 0.00 | 0.00 | 38 | 1013.1 |
| 20260507200802 | 18 | 289 | 4.8 | 4.8 | 0.00 | 0.00 | 0.00 | 42 | 1013.3 |
| 20260507200257 | 17 | 286 | 9.7 | 14.5 | 0.00 | 0.00 | 0.00 | 38 | 1013.5 |
| 20260507195754 | 18 | 342 | 8.0 | 11.3 | 0.00 | 0.00 | 0.00 | 40 | 1013.5 |
| 20260507195251 | 17 | 286 | 11.3 | 11.3 | 0.00 | 0.00 | 0.00 | 40 | 1013.5 |
| 20260507194748 | 17 | 290 | 8.0 | 11.3 | 0.00 | 0.00 | 0.00 | 39 | 1013.4 |
| 20260507194244 | 18 | 330 | 1.6 | 3.2 | 0.00 | 0.00 | 0.00 | 42 | 1013.5 |
| 20260507193741 | 18 | 286 | 8.0 | 11.3 | 0.00 | 0.00 | 0.00 | 45 | 1013.5 |
| 20260507193238 | 18 | 329 | 0.0 | 0.0 | 0.00 | 0.00 | 0.00 | 42 | 1013.4 |
| 20260507192734 | 18 | 13 | 4.8 | 8.0 | 0.00 | 0.00 | 0.00 | 40 | 1013.4 |
| 20260507192231 | 18 | 286 | 4.8 | 4.8 | 0.00 | 0.00 | 0.00 | 43 | 1013.5 |
| 20260507191727 | 18 | 286 | 12.9 | 16.1 | 0.00 | 0.00 | 0.00 | 43 | 1013.5 |
| 20260507191224 | 18 | 41 | 6.4 | 11.3 | 0.00 | 0.00 | 0.00 | 39 | 1013.6 |
| 20260507190721 | 17 | 297 | 3.2 | 8.0 | 0.00 | 0.00 | 0.00 | 43 | 1013.7 |
| 20260507190219 | 17 | 305 | 3.2 | 3.2 | 0.00 | 0.00 | 0.00 | 44 | 1013.7 |
| 20260507185718 | 17 | 345 | 3.2 | 3.2 | 0.00 | 0.00 | 0.00 | 43 | 1013.7 |
| 20260507185214 | 17 | 286 | 3.2 | 8.0 | 0.00 | 0.00 | 0.00 | 43 | 1013.9 |
| 20260507184712 | 17 | 326 | 6.4 | 11.3 | 0.00 | 0.00 | 0.00 | 41 | 1013.8 |
| 20260507184209 | 17 | 286 | 14.5 | 20.9 | 0.00 | 0.00 | 0.00 | 40 | 1014.1 |
| 20260507183706 | 18 | 292 | 6.4 | 9.7 | 0.00 | 0.00 | 0.00 | 41 | 1014.2 |
| 20260507183202 | 17 | 16 | 0.0 | 0.0 | 0.00 | 0.00 | 0.00 | 43 | 1013.9 |
| 20260507182700 | 18 | 286 | 4.8 | 4.8 | 0.00 | 0.00 | 0.00 | 44 | 1013.8 |
| 20260507182155 | 17 | 286 | 4.8 | 4.8 | 0.00 | 0.00 | 0.00 | 47 | 1014.3 |
| 20260507181652 | 17 | 45 | 1.6 | 1.6 | 0.00 | 0.00 | 0.00 | 44 | 1014.4 |
| 20260507181148 | 16 | 36 | 4.8 | 4.8 | 0.00 | 0.00 | 0.00 | 45 | 1014.2 |
| 20260507180645 | 16 | 286 | 9.7 | 12.9 | 0.00 | 0.00 | 0.00 | 46 | 1014.4 |
| 20260507180142 | 16 | 290 | 12.9 | 17.7 | 0.00 | 0.00 | 0.00 | 47 | 1014.0 |
| 20260507175637 | 16 | 286 | 11.3 | 12.9 | 0.00 | 0.00 | 0.00 | 44 | 1014.2 |
| 20260507175135 | 18 | 19 | 8.0 | 11.3 | 0.00 | 0.00 | 0.00 | 44 | 1014.2 |
| 20260507174632 | 17 | 335 | 3.2 | 3.2 | 0.00 | 0.00 | 0.00 | 46 | 1014.3 |
| 20260507174130 | 17 | 286 | 8.0 | 11.3 | 0.00 | 0.00 | 0.00 | 50 | 1014.3 |
| 20260507173627 | 17 | 4 | 4.8 | 8.0 | 0.00 | 0.00 | 0.00 | 44 | 1014.3 |
| 20260507173124 | 17 | 327 | 3.2 | 3.2 | 0.00 | 0.00 | 0.00 | 46 | 1014.6 |
| 20260507172620 | 16 | 331 | 3.2 | 8.0 | 0.00 | 0.00 | 0.00 | 50 | 1014.4 |
| 20260507172118 | 17 | 286 | 4.8 | 4.8 | 0.00 | 0.00 | 0.00 | 52 | 1014.8 |
| 20260507171612 | 16 | 292 | 6.4 | 8.0 | 0.00 | 0.00 | 0.00 | 51 | 1014.5 |